[[{"header":{"parameterUnit":"m.s-1","parameterCategory":1,"la1":30.2991,"la2":30.254,"lo1":-89.0895,"lo2":-89.0444,"dy":0.0017,"dx":0.0017,"nx":28,"ny":28,"refTime":"2025-11-16T09:00:00:Z","depth":0,"parameterNumber":2,"parameterNumberName":"U-component_of_WINDS"},"data":[0,0,0,0,0,0,0,0,0,0,0,0,0,0,0,0,0,0,0,0,0,0,0,0,0,0,0,0,0,0,0,0,0,0,0,0,0,0,0,0,0,0,0,0,0,0,0,0,0,0,0,0,0,0,0,0,0,0,-1.0456,-1.0455,0,-1.0426,-1.0426,-1.0426,-1.0391,-1.0391,-1.039,-1.039,-1.036,-1.036,-1.036,0,0,0,0,0,0,0,0,0,0,0,0,0,-1.0483,-1.0482,-1.0456,-1.0455,-1.0455,-1.0426,-1.0426,-1.0426,-1.0392,-1.0391,-1.039,-1.039,-1.036,-1.036,-1.036,0,0,0,0,0,0,0,0,0,0,0,0,0,-1.0464,-1.0482,-1.0456,-1.0434,-1.0432,-1.0426,-1.0426,-1.0425,-1.0392,-1.0391,-1.039,-1.0389,-1.036,-1.036,-1.036,-1.0372,0,0,-1.0358,-1.0358,0,0,0,0,0,0,0,0,-1.0465,-1.0463,-1.0438,-1.0436,-1.0433,-1.0412,-1.0425,-1.0408,-1.0392,-1.0407,-1.039,-1.0389,-1.0378,-1.0376,-1.0372,-1.0371,-1.037,-1.0358,-1.0358,-1.0358,-1.0358,0,0,0,0,0,0,0,-1.0466,-1.0464,-1.0444,-1.0438,-1.0435,-1.0427,-1.0423,-1.0421,-1.0397,-1.0406,-1.0403,-1.04,-1.0377,-1.0373,-1.0371,-1.0369,-1.0358,-1.0358,-1.0357,-1.0357,-1.0377,-1.0378,0,0,0,0,0,0,-1.0471,-1.0465,-1.0445,-1.0443,-1.0448,-1.0427,-1.0423,-1.0419,-1.0397,-1.0393,-1.0401,-1.0399,-1.0374,-1.0372,-1.037,-1.0384,-1.0358,-1.0357,-1.0357,-1.0376,-1.0377,-1.0378,0,0,0,0,0,0,-1.0471,-1.0469,-1.0446,-1.0453,-1.045,-1.0427,-1.0424,-1.0419,-1.0415,-1.0394,-1.0389,-1.0401,-1.0373,-1.0371,-1.0372,-1.0382,-1.0357,-1.0357,-1.0375,-1.0377,-1.0378,-1.0411,0,0,0,0,0,0,-1.0472,-1.047,-1.0474,-1.0454,-1.045,-1.0448,-1.0424,-1.0419,-1.0415,-1.0412,-1.0393,-1.0389,-1.0373,-1.0373,-1.0372,-1.0381,-1.0356,-1.0374,-1.0376,-1.0377,-1.0409,-1.0413,-1.0417,0,0,0,0,0,-1.0473,-1.0485,-1.0475,-1.0472,-1.0455,-1.0449,-1.0447,-1.0427,-1.0416,-1.042,-1.0406,-1.039,-1.0381,-1.0373,-1.0372,-1.0381,-1.0374,-1.0376,-1.0377,-1.0407,-1.0413,-1.0417,0,0,0,0,0,0,-1.0507,-1.0482,-1.047,-1.0475,-1.0465,-1.0443,-1.0448,-1.0434,-1.0426,-1.0424,-1.04,-1.0396,-1.04,-1.0391,-1.0382,-1.0393,-1.0375,-1.0377,-1.0399,-1.0403,-1.0407,-1.041,-1.0356,0,0,0,0,0,-1.0515,-1.0512,-1.049,-1.0497,-1.0492,-1.0471,-1.0468,-1.0454,-1.0442,-1.0438,-1.0424,-1.0413,-1.0408,-1.0405,-1.0399,-1.0408,-1.0403,-1.0413,-1.0417,-1.0421,-1.0422,-1.0426,-1.0431,-1.0384,-1.0384,-1.0384,0,0,-1.0531,-1.0517,-1.0517,-1.0503,-1.0493,-1.0492,-1.0468,-1.0467,-1.0465,-1.0438,-1.0438,-1.0427,-1.0414,-1.0419,-1.042,-1.0411,-1.0434,-1.0423,-1.0426,-1.0426,-1.0429,-1.0433,-1.0437,-1.0385,-1.0385,-1.0385,0,0,-1.056,-1.0549,-1.0554,-1.0544,-1.053,-1.0516,-1.0517,-1.0498,-1.049,-1.049,-1.0469,-1.0467,-1.0459,-1.045,-1.0445,-1.0471,-1.0456,-1.047,-1.0491,-1.0495,-1.0498,-1.0502,-1.0511,-1.0515,-1.0471,-1.0471,-1.0471,0,-1.0582,-1.0578,-1.0558,-1.0558,-1.0553,-1.0528,-1.0532,-1.0524,-1.0509,-1.0506,-1.0495,-1.0485,-1.0474,-1.0477,-1.0483,-1.0479,-1.048,-1.0472,-1.05,-1.0502,-1.0505,-1.0514,-1.0518,-1.0473,-1.0473,-1.0473,-1.0473,0,-1.0607,-1.0604,-1.061,-1.0595,-1.0591,-1.0593,-1.0573,-1.0571,-1.0557,-1.0545,-1.0545,-1.0531,-1.0522,-1.0522,-1.0509,-1.0523,-1.0517,-1.0504,-1.0486,-1.0512,-1.052,-1.0523,-1.0476,-1.0475,-1.0475,-1.0474,0,0,-1.0656,-1.063,-1.0632,-1.0626,-1.0608,-1.0606,-1.0607,-1.0598,-1.0597,-1.0587,-1.0588,-1.0582,-1.0569,-1.0563,-1.0549,-1.0552,-1.0574,-1.0538,-1.0537,-1.0545,-1.0589,-1.06,-1.0604,-1.0564,-1.0564,-1.0565,-1.059,0,-1.0682,-1.0682,-1.0664,-1.067,-1.0667,-1.0644,-1.0645,-1.0635,-1.0623,-1.0619,-1.0606,-1.0602,-1.0586,-1.0582,-1.0585,-1.0571,-1.0583,-1.0569,-1.0565,-1.0565,-1.0569,-1.0608,-1.0619,-1.0644,-1.0593,-1.0594,-1.0594,0,-1.0712,-1.0704,-1.0709,-1.0692,-1.069,-1.0691,-1.0682,-1.0679,-1.0667,-1.0658,-1.0651,-1.0635,-1.0635,-1.0618,-1.0619,-1.061,-1.0607,-1.06,-1.0601,-1.0599,-1.0581,-1.0608,-1.0651,-1.0655,-1.0599,-1.0598,-1.0598,0,-1.0747,-1.0738,-1.074,-1.0735,-1.0714,-1.0716,-1.0707,-1.0694,-1.069,-1.0682,-1.0679,-1.0672,-1.0667,-1.0662,-1.0644,-1.0633,-1.0646,-1.0628,-1.0639,-1.064,-1.0643,-1.0643,-1.0686,-1.0641,-1.0641,-1.0641,-1.0641,0,-1.0778,-1.0783,-1.0756,-1.0757,-1.0762,-1.074,-1.0746,-1.0735,-1.0723,-1.0722,-1.0702,-1.0701,-1.0678,-1.0675,-1.0661,-1.0663,-1.0662,-1.0655,-1.0651,-1.0657,-1.0658,-1.0655,-1.0652,-1.0642,-1.0642,-1.0642,-1.0642,0,-1.0819,-1.0801,-1.0802,-1.0782,-1.0777,-1.0781,-1.0765,-1.0765,-1.0752,-1.0752,-1.075,-1.073,-1.0725,-1.0707,-1.0698,-1.0689,-1.0696,-1.0689,-1.07,-1.0698,-1.071,-1.071,-1.0753,-1.0758,-1.071,-1.071,-1.0711,0,-1.084,-1.0842,-1.0823,-1.0821,-1.0813,-1.081,-1.0806,-1.0785,-1.0782,-1.0768,-1.0771,-1.0765,-1.0759,-1.0753,-1.0737,-1.073,-1.0723,-1.0739,-1.0722,-1.0727,-1.0723,-1.0723,-1.0724,-1.0742,-1.0743,-1.0743,-1.0744,0,-1.0879,-1.087,-1.0865,-1.0856,-1.0852,-1.0845,-1.0836,-1.0836,-1.0813,-1.081,-1.0805,-1.08,-1.0791,-1.0786,-1.0776,-1.0768,-1.0752,-1.0749,-1.0752,-1.0757,-1.0764,-1.0761,-1.071,-1.0748,-1.0748,-1.0748,-1.0747,-1.0747,-1.091,-1.0912,-1.0899,-1.0893,-1.0885,-1.0877,-1.0877,-1.0864,-1.086,-1.0851,-1.0839,-1.0836,-1.0823,-1.0809,-1.0802,-1.0799,-1.079,-1.0794,-1.0795,-1.0796,-1.0799,-1.0765,-1.0797,-1.0797,-1.0797,-1.0797,-1.0797,0,-1.0948,-1.0939,-1.0934,-1.0923,-1.0919,-1.0905,-1.0895,-1.0892,-1.089,-1.088,-1.0874,-1.0869,-1.0863,-1.0847,-1.084,-1.0841,-1.0834,-1.084,-1.084,-1.0838,-1.0807,-1.0806,-1.0846,-1.0846,-1.0846,-1.0846,-1.0846,-1.0846,-1.0968,-1.097,-1.096,-1.0957,-1.0948,-1.0944,-1.094,-1.0933,-1.0925,-1.0919,-1.0915,-1.0904,-1.0892,-1.0884,-1.0878,-1.0874,-1.0872,-1.0881,-1.0874,-1.0845,-1.084,-1.0836,-1.0835,-1.0881,-1.0881,-1.0906,-1.0906,-1.0906]},{"header":{"parameterUnit":"m.s-1","parameterCategory":1,"la1":30.2991,"la2":30.254,"lo1":-89.0895,"lo2":-89.0444,"dy":0.0017,"dx":0.0017,"nx":28,"ny":28,"refTime":"2025-11-16T09:00:00:Z","depth":0,"parameterNumber":3,"parameterNumberName":"V-component_of_WINDS"},"data":[0,0,0,0,0,0,0,0,0,0,0,0,0,0,0,0,0,0,0,0,0,0,0,0,0,0,0,0,0,0,0,0,0,0,0,0,0,0,0,0,0,0,0,0,0,0,0,0,0,0,0,0,0,0,0,0,0,0,0.5325,0.5325,0,0.5332,0.5332,0.5332,0.5316,0.5316,0.5315,0.5315,0.5322,0.5322,0.5323,0,0,0,0,0,0,0,0,0,0,0,0,0,0.5299,0.5299,0.5325,0.5325,0.5325,0.5332,0.5332,0.5332,0.5316,0.5316,0.5315,0.5314,0.5322,0.5322,0.5323,0,0,0,0,0,0,0,0,0,0,0,0,0,0.5308,0.5299,0.5325,0.5318,0.5317,0.5332,0.5332,0.5332,0.5316,0.5316,0.5315,0.5314,0.5321,0.5322,0.5323,0.5345,0,0,0.5326,0.5327,0,0,0,0,0,0,0,0,0.5308,0.5309,0.5319,0.5319,0.5318,0.5322,0.5326,0.5337,0.5316,0.5317,0.5315,0.5314,0.5323,0.5324,0.5327,0.5345,0.5346,0.5326,0.5327,0.5328,0.5328,0,0,0,0,0,0,0,0.5307,0.5309,0.5328,0.5319,0.5319,0.5315,0.5315,0.5328,0.5324,0.5317,0.5316,0.5317,0.5322,0.5326,0.5327,0.5346,0.5326,0.5327,0.5328,0.5328,0.5385,0.5385,0,0,0,0,0,0,0.5307,0.5308,0.5328,0.5328,0.5311,0.5316,0.5317,0.5322,0.5324,0.5323,0.5317,0.5316,0.5324,0.5325,0.5327,0.5354,0.5328,0.5328,0.5329,0.5384,0.5385,0.5386,0,0,0,0,0,0,0.5307,0.5309,0.5327,0.5318,0.532,0.5317,0.5323,0.5322,0.5326,0.5324,0.5324,0.5321,0.5324,0.5325,0.5341,0.5354,0.5329,0.533,0.5383,0.5384,0.5385,0.5407,0,0,0,0,0,0,0.5306,0.5309,0.5317,0.5318,0.5321,0.5341,0.5324,0.5323,0.5328,0.5326,0.5328,0.5327,0.5323,0.534,0.5342,0.5354,0.5331,0.5382,0.5383,0.5385,0.5405,0.5409,0.5412,0,0,0,0,0,0.5305,0.5322,0.5318,0.532,0.5331,0.5342,0.5343,0.5338,0.5329,0.5337,0.5336,0.5327,0.5352,0.5341,0.5344,0.5357,0.5381,0.5383,0.5385,0.5403,0.5408,0.5412,0,0,0,0,0,0,0.5322,0.5322,0.5317,0.5335,0.5339,0.5339,0.5349,0.5343,0.5349,0.5347,0.534,0.5341,0.5358,0.5359,0.5348,0.5379,0.5365,0.5367,0.5378,0.5382,0.5386,0.5385,0.5332,0,0,0,0,0,0.5328,0.5338,0.5337,0.5353,0.5355,0.5352,0.5357,0.5353,0.5356,0.5358,0.5358,0.5362,0.537,0.5376,0.5384,0.5405,0.5406,0.5415,0.5418,0.5421,0.5424,0.5436,0.5441,0.5392,0.5392,0.5392,0,0,0.5341,0.5342,0.5348,0.5357,0.5359,0.5369,0.5354,0.5365,0.5372,0.5359,0.5375,0.5375,0.5379,0.5398,0.5406,0.5399,0.5437,0.5424,0.5426,0.5427,0.5439,0.5443,0.5447,0.5394,0.5393,0.5393,0,0,0.5369,0.537,0.5384,0.5387,0.5391,0.5389,0.5392,0.5394,0.5394,0.5409,0.54,0.5409,0.5424,0.5427,0.5431,0.5462,0.5454,0.5464,0.5483,0.5495,0.5499,0.5502,0.5514,0.5518,0.5467,0.5467,0.5467,0,0.5384,0.5398,0.5392,0.5405,0.5409,0.5398,0.5413,0.5416,0.5422,0.5426,0.5418,0.5437,0.5438,0.5459,0.5466,0.5469,0.5474,0.5464,0.5499,0.5502,0.5505,0.5516,0.5521,0.5468,0.5468,0.5468,0.5468,0,0.5417,0.5428,0.5439,0.5445,0.5451,0.5465,0.5461,0.5468,0.5463,0.5462,0.5478,0.548,0.5489,0.5493,0.5488,0.5513,0.5509,0.55,0.5485,0.5511,0.5522,0.5526,0.547,0.5469,0.5469,0.5469,0,0,0.5456,0.546,0.5464,0.5468,0.5472,0.548,0.5493,0.5502,0.5508,0.5513,0.5524,0.5538,0.553,0.5534,0.553,0.554,0.5566,0.553,0.553,0.5538,0.5595,0.5602,0.5607,0.5561,0.5562,0.5562,0.5595,0,0.5484,0.5507,0.5503,0.5525,0.5536,0.5526,0.5538,0.5542,0.5541,0.555,0.555,0.556,0.5548,0.5551,0.5561,0.5561,0.5578,0.5558,0.5573,0.5573,0.5573,0.5612,0.562,0.565,0.5599,0.5599,0.56,0,0.552,0.5527,0.5551,0.5555,0.5559,0.5569,0.5578,0.5586,0.5591,0.559,0.5595,0.5589,0.5603,0.5589,0.5608,0.5596,0.5601,0.5602,0.5603,0.5605,0.5589,0.5616,0.566,0.5665,0.5606,0.5606,0.5605,0,0.5548,0.5563,0.5579,0.5582,0.5587,0.5595,0.5597,0.5601,0.5607,0.5614,0.5618,0.5626,0.5631,0.5638,0.5635,0.5625,0.5656,0.5641,0.5656,0.5657,0.5664,0.5664,0.571,0.5666,0.5666,0.5666,0.5666,0,0.558,0.5596,0.5592,0.5602,0.5619,0.5614,0.5631,0.5632,0.5636,0.5647,0.5639,0.5649,0.5644,0.5654,0.5652,0.5669,0.5671,0.5671,0.5671,0.5673,0.5673,0.5677,0.5675,0.5667,0.5667,0.5667,0.5666,0,0.5614,0.5612,0.5629,0.5632,0.5633,0.5646,0.5649,0.5659,0.5658,0.5672,0.5675,0.5674,0.5685,0.5683,0.5695,0.5694,0.5716,0.5712,0.5715,0.5714,0.5731,0.573,0.5782,0.5789,0.574,0.574,0.574,0,0.5635,0.5647,0.5651,0.5658,0.5661,0.5672,0.5678,0.5674,0.568,0.5687,0.5697,0.5708,0.5716,0.5736,0.5736,0.5746,0.5743,0.5761,0.5745,0.5747,0.5745,0.5745,0.5746,0.5764,0.5765,0.5765,0.5766,0,0.5674,0.5672,0.5682,0.5691,0.5699,0.5706,0.5712,0.5718,0.5715,0.5723,0.5735,0.5742,0.5755,0.5767,0.5776,0.5779,0.5772,0.5771,0.5775,0.5778,0.5779,0.578,0.5725,0.577,0.5769,0.5769,0.5769,0.5769,0.5702,0.5713,0.5718,0.5729,0.5733,0.574,0.575,0.5751,0.5761,0.5771,0.5768,0.5782,0.5788,0.58,0.5804,0.5815,0.5809,0.5815,0.5816,0.5818,0.5821,0.5777,0.5817,0.5816,0.5816,0.5816,0.5816,0,0.5742,0.5745,0.5755,0.5764,0.5773,0.5766,0.5773,0.5781,0.5794,0.5799,0.5808,0.5823,0.5834,0.5836,0.5847,0.5856,0.5853,0.5859,0.5859,0.586,0.5825,0.5821,0.5861,0.5861,0.5861,0.5861,0.5861,0.5861,0.5763,0.5781,0.578,0.5801,0.5803,0.5817,0.5822,0.5828,0.5833,0.585,0.5859,0.586,0.5865,0.5876,0.5887,0.5887,0.5892,0.5899,0.5898,0.5866,0.5862,0.5858,0.5854,0.59,0.59,0.5932,0.5932,0.5933]}]]